Location: Alamogordo
(32.8990°N, 105.9600°W)
Time: 17:00:54
(UTC-06:00)

Hubble Space Telescope - Visible Passes

Search period start: 30 September 2022 00:00
Search period end: 10 October 2022 00:00
Orbit: 531 x 535 km, 28.5° (Epoch: 30 September)

Date Brightness Start Highest point End Pass type
(mag) Time Alt. Az. Time Alt. Az. Time Alt. Az.
30 Sep 1.5 19:26:05 10° WSW 19:29:57 43° S 19:33:29 12° ESE visible
30 Sep 3.2 21:07:18 10° WSW 21:08:43 18° WSW 21:08:43 18° WSW visible
01 Oct 1.6 19:13:50 10° WSW 19:17:41 41° S 19:21:33 10° ESE visible
01 Oct 2.9 20:55:12 10° WSW 20:57:10 19° SW 20:57:10 19° SW visible
02 Oct 2.8 20:43:10 10° WSW 20:45:40 18° SSW 20:45:40 18° SSW visible
03 Oct 3.0 20:31:14 10° WSW 20:33:44 16° SSW 20:34:13 15° SSW visible
04 Oct 3.2 20:19:29 10° SW 20:21:22 13° SSW 20:22:50 11° S visible
05 Oct 3.5 20:08:24 10° SW 20:09:00 10° SSW 20:09:36 10° SSW visible
